Regional Weather Roundup
Issued by NWS

Home | Current Version | Previous Version | Graphics & Text | Print | Product List | Glossary On
Versions: 1 2 3 4 5 6 7 8 9 10 11 12 13 14 15 16 17 18 19 20 21 22 23 24 25 26 27 28 29 30 31 32 33 34 35 36 37 38 39 40 41 42 43 44 45 46 47 48 49 50
998
ASUS43 KDMX 050003
RWRIA

WEATHER ROUNDUP FOR IOWA
NATIONAL WEATHER SERVICE DES MOINES IA
700 PM CDT WED MAY 04 2016

NOTE: "FAIR" INDICATES FEW OR NO CLOUDS BELOW 12,000 FEET WITH NO
SIGNIFICANT WEATHER AND/OR OBSTRUCTIONS TO VISIBILITY.

* - THESE STATIONS ARE NOT NWS STATIONS...THUS NOT UNDER NWS
QUALITY CONTROL.  THEY ALSO DO NOT REPORT WEATHER SUCH
AS PRECIPITATION OR FOG.

IAZ001>003-012>014-020>022-031>034-043>046-050100-
   NORTHWEST IOWA

CITY           SKY/WX    TMP DP  RH WIND       PRES   REMARKS
CARROLL *      SUNNY     66  36  32 N16G23    29.96F
CHEROKEE *     SUNNY     66  34  30 N14       29.97F
DENISON *      SUNNY     66  36  32 N15G22    29.96F
LE MARS *      SUNNY     68  37  32 NW13G21   30.00S
ORANGE CITY *  SUNNY     68  36  30 N9G18     29.99F
SHELDON *      SUNNY     68  32  26 N12G20    29.97S
SIOUX CITY     SUNNY     67  40  37 NW14      30.00F
6HR MIN TEMP:  65; 6HR MAX TEMP:  69;

SPENCER        SUNNY     66  32  28 N18       29.97F
6HR MIN TEMP:  61; 6HR MAX TEMP:  67;

STORM LAKE *   SUNNY     66  32  28 N15G23    29.98S
$$

IAZ055>058-069>071-079>083-090>094-050100-
   SOUTHWEST IOWA

CITY           SKY/WX    TMP DP  RH WIND       PRES   REMARKS
ATLANTIC *     SUNNY     64  36  34 N14       29.98F
AUDUBON *      SUNNY     66  32  28 NW13G21   29.98F
CLARINDA *       N/A     66  36  32 MISG      30.00S
COUNCIL BLFS * SUNNY     66  37  34 NW14      30.00F
CRESTON *      SUNNY     63  36  36 N15G23    29.98F
HARLAN  *      SUNNY     66  36  32 N15G25    30.02S
LAMONI         SUNNY     63  37  38 N14       29.96S
6HR MIN TEMP:  62; 6HR MAX TEMP:  65;

RED OAK *      SUNNY     68  36  30 N16       29.99S
SHENANDOAH *   SUNNY     68  37  32 NW15G21   30.00S
$$

IAZ047>049-059>061-072>074-084-050100-
   CENTRAL IOWA

CITY           SKY/WX    TMP DP  RH WIND       PRES   REMARKS
AMES           SUNNY     66  32  28 NW20G28   29.93S
6HR MIN TEMP:  62; 6HR MAX TEMP:  68;

ANKENY *       SUNNY     66  34  30 NW16G23   29.93S
BOONE *        SUNNY     64  34  32 NW20G26   29.93S
CHARITON *     SUNNY     64  34  32 NW17      29.94S
DES MOINES     MOSUNNY   67  31  26 NW14G21   29.94S
6HR MIN TEMP:  63; 6HR MAX TEMP:  68;

GRINNELL*      SUNNY     65  29  25 NW20G26   29.91S
KNOXVILLE *    SUNNY     64  32  29 N13G25    29.91S
MARSHALLTOWN   SUNNY     65  32  29 N14       29.90F
6HR MIN TEMP:  61; 6HR MAX TEMP:  66;

NEWTON *       SUNNY     64  32  29 N20G25    29.91S
PERRY *          N/A     66  34  30 N20       29.96S
$$

IAZ004>006-015-016-023>025-035-036-050100-
   NORTH CENTRAL IOWA

CITY           SKY/WX    TMP DP  RH WIND       PRES   REMARKS
ALGONA *       SUNNY     66  30  26 N20       29.94F
CLARION *      SUNNY     66  28  24 N18G28    29.93S
ESTHERVILLE    SUNNY     65  32  29 NW16      29.95F
6HR MIN TEMP:  60; 6HR MAX TEMP:  66;

FORT DODGE *   SUNNY     64  36  34 NW10G20   29.95F
MASON CITY     SUNNY     64  30  27 N20       29.93S
6HR MIN TEMP:  61; 6HR MAX TEMP:  67;

FOREST CITY *    N/A     63  28  27 N16G22    29.92F
WEBSTER CITY * SUNNY     66  32  28 NW18G28   29.92S
IOWA FALLS *     N/A     66  30  26 N18G25    29.92F
$$

IAZ007>011-017>019-026>030-037>042-050>054-066-050100-
   NORTHEAST IOWA

CITY           SKY/WX    TMP DP  RH WIND       PRES   REMARKS
CEDAR RAPIDS   SUNNY     63  33  32 N17       29.87S
6HR MIN TEMP:  60; 6HR MAX TEMP:  65;

CHARLES CITY * SUNNY     64  27  24 N17G25    29.91R
CLINTON *      MOSUNNY   60  36  40 N16       29.86S
DECORAH *      SUNNY     61  28  29 N14G21    29.88S
DUBUQUE        MOSUNNY   59  32  36 N17       29.86S
6HR MIN TEMP:  57; 6HR MAX TEMP:  62;

MONTICELLO *   MOSUNNY   63  32  31 N17       29.87S
OELWEIN *      SUNNY     63  30  29 N17       29.89S
WATERLOO       SUNNY     63  29  27 N23G29    29.88F
6HR MIN TEMP:  61; 6HR MAX TEMP:  66;

$$

IAZ064-065-067-068-078-050100-
   EAST CENTRAL IOWA

CITY           SKY/WX    TMP DP  RH WIND       PRES   REMARKS
DAVENPORT      MOSUNNY   61  33  35 N15       29.86S
6HR MIN TEMP:  58; 6HR MAX TEMP:  64;

IOWA CITY      SUNNY     64  30  27 N15G26    29.89S
6HR MIN TEMP:  60; 6HR MAX TEMP:  66;

MT. PLEASANT * SUNNY     66  32  28 NW18G29   29.88S
MUSCATINE *    SUNNY     63  30  29 N12G23    29.87S
QUAD CITIES    SUNNY     62  32  32 NW14G28   29.85R
6HR MIN TEMP:  59; 6HR MAX TEMP:  65;

$$

IAZ062-063-075>077-085>089-095>099-050100-
   SOUTHEAST IOWA

CITY           SKY/WX    TMP DP  RH WIND       PRES   REMARKS
BURLINGTON     MOSUNNY   62  33  33 N16G22    29.87S
6HR MIN TEMP:  59; 6HR MAX TEMP:  64;

FAIRFIELD *    SUNNY     64  30  27 N17G25    29.89S
FORT MADISON * MOSUNNY   63  34  34 NW18G25   29.88S
KEOKUK *       MOSUNNY   64  34  32 NW10G17   29.87F
OSKALOOSA *      N/A     64  30  27 N16G25    29.91S
OTTUMWA        SUNNY     63  31  30 N20       29.90F
6HR MIN TEMP:  61; 6HR MAX TEMP:  66;

WASHINGTON *   MOSUNNY   64  32  29 N15G25    29.89S
$$

ABBREVIATIONS USED IN REMARKS
   TC - TEMPERATURES IN CELSIUS
  WCI - WIND CHILL INDEX
   HX - HEAT INDEX
  VSB - VISIBILITY
$$





USA.gov is the U.S. government's official web portal to all federal, state and local government web resources and services.